Weather History for Townsville Amo, Queensland

Change the Weather History Date:

Friday, February 7, 2014

  Actual Average Record
Temperature  
Mean Temperature 80 °F -  
Max Temperature 86 °F 88 °F - ()
Min Temperature 73 °F 75 °F - ()
Cooling Degree Days 14    
Growing Degree Days 30 (Base 50)    
Moisture  
Dew Point 71 °F    
Average Humidity 76    
Maximum Humidity 94    
Minimum Humidity 56    
Precipitation  
Precipitation 0.04 in 0.29 in - ()
Sea Level Pressure  
Sea Level Pressure 29.76 in    
Wind  
Wind Speed 14 mph ()    
Max Wind Speed 25 mph    
Max Gust Speed 33 mph    
Visibility 6.4 miles    
Events Rain    
T = Trace of Precipitation, MM = Missing Value Source: Averaged Metar Reports

Daily Weather History Graph

Daily Weather History Graph

Search for Another Location

Airport:

Trip Planner

Search our weather history database for the weather conditions in past years. The results will help you decide how hot, cold, wet, or windy it might be!

Date:

Astronomy

Feb. 07, 2014 Rise Set
Actual Time 6:01 AM AEST 6:52 PM AEST
Civil Twilight 5:38 AM AEST 7:15 PM AEST
Nautical Twilight 5:11 AM AEST 7:42 PM AEST
Astronomical Twilight 4:43 AM AEST 8:10 PM AEST
Moon 12:47 PM AEST (2/7) No Moon Set
Length of Visible Light 13h 37m
Length of Day
12h 51m
First Quarter, 53% of the Moon is Illuminated
Feb 7
First Quarter
Feb 15
Full
Feb 23
Last Quarter
Mar 1
New
Mar 8
First Quarter

Hourly Weather History & Observations

Time (AEST) Temp. Heat Index Dew Point Humidity Pressure Visibility Wind Dir Wind Speed Gust Speed Precip Events Conditions
12:00 AM 73 °F - 72 °F 94% 29.79 in 3 mi SE 17.3 mph - -   Overcast
12:00 AM 73.4 °F - 71.6 °F 94% 29.77 in 3.1 mi SE 17.3 mph - N/A Rain Rain Showers
12:08 AM 73.4 °F - 71.6 °F 94% 29.77 in 3.7 mi ESE 12.7 mph - N/A Rain Light Rain Showers
12:27 AM 73.4 °F - 71.6 °F 94% 29.77 in 4.3 mi SE 12.7 mph - N/A Rain Light Rain Showers
12:29 AM 73.4 °F - 71.6 °F 94% 29.77 in 3.7 mi SE 12.7 mph - N/A Rain Light Rain Showers
12:30 AM 73.4 °F - 71.6 °F 94% 29.77 in 3.7 mi SE 12.7 mph - N/A Rain Light Rain Showers
1:00 AM 74 °F - 72 °F 91% 29.78 in - SE 11.5 mph - -  
1:00 AM 73.4 °F - 71.6 °F 94% 29.74 in 6.2 mi SE 11.5 mph - N/A   Overcast
1:30 AM 73.4 °F - 71.6 °F 94% 29.74 in 6.2 mi SSE 9.2 mph - N/A   Overcast
2:00 AM 75.2 °F - 71.6 °F 89% 29.74 in 6.2 mi SE 9.2 mph - N/A   Mostly Cloudy
2:30 AM 75.2 °F - 71.6 °F 89% 29.71 in 6.2 mi SE 8.1 mph - N/A   Mostly Cloudy
3:00 AM 76 °F - 71 °F 78% 29.73 in - SE 12.7 mph - -   Overcast
3:00 AM 77.0 °F - 69.8 °F 78% 29.71 in 6.2 mi SE 12.7 mph - N/A   Mostly Cloudy
3:30 AM 77.0 °F - 69.8 °F 78% 29.71 in 6.2 mi ESE 11.5 mph - N/A   Scattered Clouds
4:00 AM 76 °F - 70 °F 77% 29.73 in - SE 10.4 mph - -  
4:00 AM 77.0 °F - 69.8 °F 78% 29.71 in 6.2 mi SE 10.4 mph - N/A   Mostly Cloudy
4:30 AM 77.0 °F - 69.8 °F 78% 29.71 in 6.2 mi SE 11.5 mph - N/A   Scattered Clouds
5:00 AM 77.0 °F - 69.8 °F 78% 29.71 in 6.2 mi SE 12.7 mph - N/A   Scattered Clouds
5:30 AM 77.0 °F - 69.8 °F 78% 29.71 in 6.2 mi SE 10.4 mph - N/A   Scattered Clouds
6:00 AM 77 °F - 70 °F 72% 29.74 in 12 mi SE 12.7 mph - -   Partly Cloudy
6:00 AM 77.0 °F - 69.8 °F 78% 29.74 in 6.2 mi SE 12.7 mph - N/A   Mostly Cloudy
6:30 AM 77.0 °F - 69.8 °F 78% 29.74 in 6.2 mi SE 10.4 mph - N/A   Mostly Cloudy
7:00 AM 78 °F - 70 °F 71% 29.77 in - SE 11.5 mph - -  
7:00 AM 77.0 °F - 69.8 °F 78% 29.74 in 6.2 mi SE 11.5 mph - N/A   Mostly Cloudy
7:30 AM 77.0 °F - 71.6 °F 83% 29.77 in 6.2 mi SE 17.3 mph - N/A   Mostly Cloudy
8:00 AM 78.8 °F - 71.6 °F 78% 29.77 in 3.1 mi SE 15.0 mph - N/A Rain Light Rain Showers
8:30 AM 77.0 °F - 73.4 °F 89% 29.80 in 6.2 mi SE 17.3 mph - N/A   Mostly Cloudy
9:00 AM 78 °F - 73 °F 80% 29.79 in 12 mi SE 12.7 mph - -   Mostly Cloudy
9:00 AM 78.8 °F - 73.4 °F 83% 29.77 in 5.0 mi SE 12.7 mph - N/A   Mostly Cloudy
9:10 AM 77.0 °F - 73.4 °F 89% 29.80 in 1.9 mi ESE 15.0 mph - N/A Rain Rain Showers
9:30 AM 77.0 °F - 73.4 °F 89% 29.80 in 6.2 mi SE 16.1 mph - N/A   Mostly Cloudy
10:00 AM 78 °F - 72 °F 76% 29.81 in - ESE 19.6 mph - -  
10:00 AM 78.8 °F - 71.6 °F 78% 29.77 in 3.1 mi ESE 19.6 mph - N/A Rain Light Rain Showers
10:30 AM 78.8 °F - 75.2 °F 89% 29.77 in 6.2 mi SE 15.0 mph - N/A   Light Drizzle
11:00 AM 78.8 °F - 73.4 °F 83% 29.77 in 6.2 mi East 21.9 mph - N/A Rain Rain Showers
11:16 AM 78.8 °F - 73.4 °F 83% 29.77 in 6.2 mi ESE 16.1 mph - N/A   Mostly Cloudy
11:30 AM 78.8 °F - 73.4 °F 83% 29.77 in 6.2 mi ESE 17.3 mph - N/A   Mostly Cloudy
11:39 AM 78.8 °F - 71.6 °F 78% 29.77 in 6.2 mi ESE 17.3 mph 31.1 mph N/A   Mostly Cloudy
12:00 PM 80 °F - 71 °F 69% 29.78 in 16 mi ESE 19.6 mph - -   Mostly Cloudy
12:00 PM 80.6 °F 84.6 °F 71.6 °F 74% 29.77 in 6.2 mi ESE 19.6 mph - N/A   Mostly Cloudy
12:30 PM 82.4 °F 88.2 °F 73.4 °F 74% 29.74 in 6.2 mi ESE 20.7 mph - N/A   Mostly Cloudy
1:00 PM 86 °F - 73 °F 56% 29.77 in - ESE 21.9 mph - -  
1:00 PM 86.0 °F 93.4 °F 73.4 °F 66% 29.74 in 6.2 mi ESE 21.9 mph 33.4 mph N/A   Mostly Cloudy
1:30 PM 84.2 °F 89.6 °F 71.6 °F 66% 29.74 in 6.2 mi ESE 25.3 mph - N/A   Mostly Cloudy
2:00 PM 84.2 °F 89.6 °F 71.6 °F 66% 29.74 in 6.2 mi ESE 21.9 mph - N/A   Mostly Cloudy
2:18 PM 84.2 °F 89.6 °F 71.6 °F 66% 29.74 in 6.2 mi East 20.7 mph 32.2 mph N/A   Mostly Cloudy
2:30 PM 84.2 °F 89.6 °F 71.6 °F 66% 29.74 in 6.2 mi East 23.0 mph - N/A   Mostly Cloudy
3:00 PM 83 °F - 70 °F 57% 29.73 in 12 mi East 21.9 mph - -   Mostly Cloudy
3:00 PM 82.4 °F 86.3 °F 69.8 °F 66% 29.71 in 6.2 mi East 21.9 mph - N/A   Mostly Cloudy
3:30 PM 84.2 °F 89.6 °F 71.6 °F 66% 29.71 in 6.2 mi East 20.7 mph 33.4 mph N/A   Mostly Cloudy
4:00 PM 80 °F - 68 °F 60% 29.75 in - East 23.0 mph - -  
4:00 PM 80.6 °F 83.2 °F 68.0 °F 65% 29.74 in 6.2 mi East 23.0 mph - N/A   Mostly Cloudy
4:10 PM 80.6 °F 83.9 °F 69.8 °F 70% 29.74 in 6.2 mi East 20.7 mph 32.2 mph N/A   Mostly Cloudy
4:30 PM 80.6 °F 84.6 °F 71.6 °F 74% 29.74 in 6.2 mi East 17.3 mph - N/A   Mostly Cloudy
5:00 PM 80.6 °F 84.6 °F 71.6 °F 74% 29.74 in 6.2 mi East 20.7 mph - N/A   Mostly Cloudy
5:30 PM 80.6 °F 84.6 °F 71.6 °F 74% 29.74 in 6.2 mi ESE 21.9 mph 33.4 mph N/A   Mostly Cloudy
6:00 PM 81 °F - 71 °F 65% 29.76 in 9 mi East 20.7 mph - -   Partly Cloudy
6:00 PM 80.6 °F 84.6 °F 71.6 °F 74% 29.74 in 6.2 mi East 20.7 mph - N/A   Mostly Cloudy
6:25 PM 80.6 °F 83.9 °F 69.8 °F 70% 29.77 in 6.2 mi ESE 21.9 mph 33.4 mph N/A   Mostly Cloudy
6:30 PM 80.6 °F 83.9 °F 69.8 °F 70% 29.77 in 6.2 mi ESE 21.9 mph 33.4 mph N/A   Mostly Cloudy
7:00 PM 79 °F - 70 °F 68% 29.81 in - ESE 21.9 mph - -  
7:00 PM 78.8 °F - 69.8 °F 74% 29.80 in 6.2 mi ESE 21.9 mph - N/A   Mostly Cloudy
7:30 PM 78.8 °F - 68.0 °F 69% 29.80 in 6.2 mi ESE 20.7 mph - N/A   Mostly Cloudy
8:00 PM 78.8 °F - 69.8 °F 74% 29.80 in 6.2 mi ESE 16.1 mph - N/A   Mostly Cloudy
8:30 PM 78.8 °F - 69.8 °F 74% 29.83 in 6.2 mi ESE 18.4 mph - N/A   Mostly Cloudy
9:00 PM 79 °F - 68 °F 62% 29.83 in 16 mi ESE 16.1 mph - -   Partly Cloudy
9:00 PM 78.8 °F - 68.0 °F 69% 29.83 in 6.2 mi ESE 16.1 mph - N/A   Mostly Cloudy
9:30 PM 78.8 °F - 68.0 °F 69% 29.83 in 6.2 mi ESE 13.8 mph - N/A   Mostly Cloudy
10:00 PM 79 °F - 68 °F 62% 29.85 in - ESE 15.0 mph - -  
10:00 PM 78.8 °F - 68.0 °F 69% 29.83 in 6.2 mi ESE 15.0 mph - N/A   Mostly Cloudy
10:30 PM 78.8 °F - 68.0 °F 69% 29.83 in 6.2 mi SE 12.7 mph - N/A   Mostly Cloudy
11:00 PM 78.8 °F - 68.0 °F 69% 29.83 in 6.2 mi ESE 11.5 mph - N/A   Overcast
11:30 PM 78.8 °F - 68.0 °F 69% 29.83 in 6.2 mi ESE 15.0 mph - N/A   Overcast